DB0LC-2 Weather Reports


time (UTC)temp
C
wind
direction
speed
KPH
gust
KPH
rain 1hr
cm
rain 24hr
cm
rain mn
cm
humidity
%
barometer
mb
20260507141432 19 0 0.0 0.0 0.00 0.00 0.00 34 910.6
20260507140416 19 0 0.0 0.0 0.00 0.00 0.00 33 910.4
20260507135404 20 0 0.0 0.0 0.00 0.00 0.00 32 910.5
20260507134349 20 0 0.0 0.0 0.00 0.00 0.00 33 910.5
20260507133343 20 0 0.0 0.0 0.00 0.00 0.00 33 910.5
20260507132336 19 0 0.0 0.0 0.00 0.00 0.00 33 910.7
20260507130228 19 0 0.0 0.0 0.00 0.00 0.00 33 910.5
20260507124147 20 0 0.0 0.0 0.00 0.00 0.00 33 910.6
20260507123148 19 0 0.0 0.0 0.00 0.00 0.00 33 910.6
20260507122116 19 0 0.0 0.0 0.00 0.00 0.00 34 910.4
20260507121042 19 0 0.0 0.0 0.00 0.00 0.00 33 910.5
20260507120028 20 0 0.0 0.0 0.00 0.00 0.00 33 910.5
20260507115028 20 0 0.0 0.0 0.00 0.00 0.00 33 910.4
20260507114020 20 0 0.0 0.0 0.00 0.00 0.00 33 910.6
20260507113006 19 0 0.0 0.0 0.00 0.00 0.00 33 910.5
20260507111007 20 0 0.0 0.0 0.00 0.00 0.00 32 910.6
20260507105917 20 0 0.0 0.0 0.00 0.00 0.00 33 910.7
20260507103826 19 0 0.0 0.0 0.00 0.00 0.00 33 910.6
20260507102819 19 0 0.0 0.0 0.00 0.00 0.00 33 910.7
20260507101739 18 0 0.0 0.0 0.00 0.00 0.00 33 910.7
20260507100740 20 0 0.0 0.0 0.00 0.00 0.00 29 910.8
20260507095725 20 0 0.0 0.0 0.00 0.00 0.00 33 910.8
20260507094714 20 0 0.0 0.0 0.00 0.00 0.00 33 910.7
20260507093651 19 0 0.0 0.0 0.00 0.00 0.00 33 910.7
20260507092639 19 0 0.0 0.0 0.00 0.00 0.00 33 910.6
20260507091614 19 0 0.0 0.0 0.00 0.00 0.00 32 910.5
20260507090602 20 0 0.0 0.0 0.00 0.00 0.00 32 910.4
20260507085602 20 0 0.0 0.0 0.00 0.00 0.00 33 910.4
20260507084551 20 0 0.0 0.0 0.00 0.00 0.00 33 910.4
20260507083537 19 0 0.0 0.0 0.00 0.00 0.00 33 910.4
20260507082516 18 0 0.0 0.0 0.00 0.00 0.00 33 910.3
20260507082513 18 0 0.0 0.0 0.00 0.00 0.00 33 910.3
20260507075412 20 0 0.0 0.0 0.00 0.00 0.00 33 910.1
20260507074407 19 0 0.0 0.0 0.00 0.00 0.00 33 910.3
20260507073336 19 0 0.0 0.0 0.00 0.00 0.00 33 910.1
20260507072326 18 0 0.0 0.0 0.00 0.00 0.00 33 910.1
20260507071259 19 0 0.0 0.0 0.00 0.00 0.00 31 909.9
20260507065210 20 0 0.0 0.0 0.00 0.00 0.00 33 909.8
20260507064157 19 0 0.0 0.0 0.00 0.00 0.00 33 909.7
20260507063132 19 0 0.0 0.0 0.00 0.00 0.00 33 909.6
20260507062118 18 0 0.0 0.0 0.00 0.00 0.00 33 909.6
20260507061107 20 0 0.0 0.0 0.00 0.00 0.00 30 909.5
20260507060059 20 0 0.0 0.0 0.00 0.00 0.00 32 909.3
20260507055043 20 0 0.0 0.0 0.00 0.00 0.00 33 909.4
20260507054020 19 0 0.0 0.0 0.00 0.00 0.00 33 909.3
20260507052954 19 0 0.0 0.0 0.00 0.00 0.00 33 909.3
20260507051933 18 0 0.0 0.0 0.00 0.00 0.00 32 909.2
20260507051931 18 0 0.0 0.0 0.00 0.00 0.00 32 909.2
20260507050912 20 0 0.0 0.0 0.00 0.00 0.00 32 908.9
20260507045905 20 0 0.0 0.0 0.00 0.00 0.00 32 908.9
20260507044829 20 0 0.0 0.0 0.00 0.00 0.00 32 908.7
20260507042815 19 0 0.0 0.0 0.00 0.00 0.00 33 908.6
20260507041806 18 0 0.0 0.0 0.00 0.00 0.00 33 908.6
20260507034727 19 0 0.0 0.0 0.00 0.00 0.00 33 908.3
20260507032702 18 0 0.0 0.0 0.00 0.00 0.00 33 908.1
20260507031702 19 0 0.0 0.0 0.00 0.00 0.00 30 908.2
20260507030637 20 0 0.0 0.0 0.00 0.00 0.00 33 908.1
20260507025625 20 0 0.0 0.0 0.00 0.00 0.00 33 908.1
20260507024602 19 0 0.0 0.0 0.00 0.00 0.00 33 908.1
20260507022524 18 0 0.0 0.0 0.00 0.00 0.00 33 908.1
20260507021450 20 0 0.0 0.0 0.00 0.00 0.00 32 908.0
20260507020422 20 0 0.0 0.0 0.00 0.00 0.00 32 907.9
20260507014300 19 0 0.0 0.0 0.00 0.00 0.00 33 907.8
20260507014259 19 0 0.0 0.0 0.00 0.00 0.00 33 907.6
20260507013234 18 0 0.0 0.0 0.00 0.00 0.00 32 907.7
20260507012246 20 0 0.0 0.0 0.00 0.00 0.00 31 907.7
20260507011213 20 0 0.0 0.0 0.00 0.00 0.00 32 907.5
20260507005158 19 0 0.0 0.0 0.00 0.00 0.00 33 907.7
20260507004159 19 0 0.0 0.0 0.00 0.00 0.00 33 907.6
20260507004157 19 0 0.0 0.0 0.00 0.00 0.00 33 907.5
20260507003132 18 0 0.0 0.0 0.00 0.00 0.00 33 907.5
20260507002131 20 0 0.0 0.0 0.00 0.00 0.00 29 907.7
20260507001121 20 0 0.0 0.0 0.00 0.00 0.00 32 907.6
20260507000059 20 0 0.0 0.0 0.00 0.00 0.00 33 907.7
20260506234018 19 0 0.0 0.0 0.00 0.00 0.00 33 907.8
20260506232957 18 0 0.0 0.0 0.00 0.00 0.00 32 907.9
20260506231918 20 0 0.0 0.0 0.00 0.00 0.00 33 907.7
20260506230909 20 0 0.0 0.0 0.00 0.00 0.00 33 907.6
20260506230907 20 0 0.0 0.0 0.00 0.00 0.00 33 907.7
20260506225840 19 0 0.0 0.0 0.00 0.00 0.00 33 907.6
20260506224831 19 0 0.0 0.0 0.00 0.00 0.00 33 907.6
20260506223808 18 0 0.0 0.0 0.00 0.00 0.00 33 907.6
20260506222726 20 0 0.0 0.0 0.00 0.00 0.00 31 907.6
20260506221700 20 0 0.0 0.0 0.00 0.00 0.00 32 907.6
20260506220639 20 0 0.0 0.0 0.00 0.00 0.00 33 907.5
20260506215637 19 0 0.0 0.0 0.00 0.00 0.00 33 907.6
20260506213553 20 0 0.0 0.0 0.00 0.00 0.00 31 907.4
20260506212523 20 0 0.0 0.0 0.00 0.00 0.00 33 907.6
20260506211435 20 0 0.0 0.0 0.00 0.00 0.00 33 907.5
20260506210411 19 0 0.0 0.0 0.00 0.00 0.00 33 907.3
20260506205331 19 0 0.0 0.0 0.00 0.00 0.00 33 907.3
20260506204321 20 0 0.0 0.0 0.00 0.00 0.00 30 907.3
20260506203320 20 0 0.0 0.0 0.00 0.00 0.00 33 907.3
20260506203318 20 0 0.0 0.0 0.00 0.00 0.00 33 907.2
20260506202242 20 0 0.0 0.0 0.00 0.00 0.00 33 907.2
20260506201212 19 0 0.0 0.0 0.00 0.00 0.00 33 907.2
20260506200142 19 0 0.0 0.0 0.00 0.00 0.00 34 907.2
20260506195140 19 0 0.0 0.0 0.00 0.00 0.00 30 907.1
20260506194144 20 0 0.0 0.0 0.00 0.00 0.00 33 907.0
20260506193128 20 0 0.0 0.0 0.00 0.00 0.00 33 907.0
20260506192117 19 0 0.0 0.0 0.00 0.00 0.00 33 906.8
20260506191052 19 0 0.0 0.0 0.00 0.00 0.00 33 906.7
20260506190030 19 0 0.0 0.0 0.00 0.00 0.00 32 906.5
20260506183943 20 0 0.0 0.0 0.00 0.00 0.00 33 906.3
20260506182913 19 0 0.0 0.0 0.00 0.00 0.00 33 906.3
20260506181815 18 0 0.0 0.0 0.00 0.00 0.00 33 906.0
20260506180748 20 0 0.0 0.0 0.00 0.00 0.00 32 905.9
20260506175724 20 0 0.0 0.0 0.00 0.00 0.00 33 906.1
20260506174723 19 0 0.0 0.0 0.00 0.00 0.00 33 906.0
20260506173659 19 0 0.0 0.0 0.00 0.00 0.00 33 905.7
20260506172647 19 0 0.0 0.0 0.00 0.00 0.00 32 905.8
20260506170558 20 0 0.0 0.0 0.00 0.00 0.00 33 905.7
20260506165520 19 0 0.0 0.0 0.00 0.00 0.00 33 905.6
20260506164443 19 0 0.0 0.0 0.00 0.00 0.00 33 905.7
20260506163357 19 0 0.0 0.0 0.00 0.00 0.00 32 905.7
20260506162329 20 0 0.0 0.0 0.00 0.00 0.00 33 905.2
20260506161251 19 0 0.0 0.0 0.00 0.00 0.00 33 905.5
20260506160226 19 0 0.0 0.0 0.00 0.00 0.00 34 905.3
20260506155140 19 0 0.0 0.0 0.00 0.00 0.00 32 905.5
20260506153126 20 0 0.0 0.0 0.00 0.00 0.00 33 905.1
20260506152038 19 0 0.0 0.0 0.00 0.00 0.00 33 904.8
20260506150949 19 0 0.0 0.0 0.00 0.00 0.00 33 904.9
20260506145858 20 0 0.0 0.0 0.00 0.00 0.00 33 905.0
20260506144823 20 0 0.0 0.0 0.00 0.00 0.00 33 904.5